Weather in Kazhlodka

Russia / Republic of Mordovia     54°00′25″N   43°10′05″E
temp.,
°C
wind,
m/s
gust,
m/s
humid.,
%
clouds,
%
prec.,
mm/h
press.,
hPa
HPBL,
m
28 february, sun
sun2800:00−15nnw359776 0.0 101282
03:00−16nw359877 0.0 101384
06:00−17nw349772 0.0 101471
09:00−15nw369770 0.0 1015225
12:00−11nnw359199 0.0 1015473
15:00−9nnw358999 0.1 1016598
18:00−12nnw2395100 0.1 101723
21:00−14n239799 0.1 102020
1 march, mon
mon100:00−16n129771 0.0 102120
03:00−16nw229736 0.0 102220
06:00−17nw229855 0.0 102320
09:00−14wnw239643 0.0 102594
12:00−9w249246 0.0 1024297
15:00−6wsw369173 0.1 1023445
18:00−8sw499697 0.0 1021178
21:00−5wsw6119598 0.1 1019505
2 march, tue
tue200:00−4wsw71395100 0.2 1015465
03:00−2wsw81595100 1.8 1012620
06:00−1wsw81497100 0.9 1008748
09:000w81298100 3.3 1005758
12:000nw71299100 1.9 1004689
15:000nw7129895 2.3 1004874
18:00−2wnw5128993 0.2 1005421
21:00−2wnw5109794 0.6 1006407
3 march, wed
wed300:00−3nw51196100 0.3 1006507
03:00−4nw5119698 0.5 1007446
06:00−5nw6129594 0.3 1008497
09:00−5nw7129294 0.5 1010719
12:00−4nw71190100 0.2 1011939
15:00−4nw81188100 0.4 10121026
18:00−5nw61190100 0.1 1014674
21:00−7nw41094100 0.2 1016330
4 march, thu
thu400:00−10wnw449634 0.0 101777
03:00−10w369753 0.1 1017111
06:00−9wsw479794 0.1 1016122
09:00−6sw7129391 0.1 1015391
12:00−2wsw8148999 0.0 1012658
15:00−1wsw8148699 0.0 1010750
18:00−2wsw81686100 0.0 1008639
21:00−2wsw8188966 0.0 1007695